Location: Kergonan
(48.2337°N, 4.5518°W)
Time: 19:47:06
(UTC+00:00)

NOSS 7 (D) - Pass Details

Date: 18 January 2020
Orbit: 323 x 760 km, 63.3° (Epoch: 16 February)

Event Time Altitude Azimuth Distance (km) Brightness Sun altitude
Exits shadow 06:30:33 32° 316° (NW) 679 4.8 -14.9°
Maximum altitude 06:31:50 84° 231° (SW) 395 4.0 -14.7°
Drops below altitude 10° 06:35:09 10° 142° (SE) 1,516 7.9 -14.2°
Sets 06:37:23 0° 142° (SE) 2,460 9.1 -13.8°
